Sandberg, CA

4:59 PM PDT on April 28, 2017 (GMT -0700)
Sandberg

Weather History for KSDB - January, 2014

Change the Weather History Date:

Thursday, January 30, 2014

  Actual Average Record
Temperature  
Mean Temperature 49 °F 43 °F  
Max Temperature 55 °F 49 °F 66 °F (1971)
Min Temperature 43 °F 37 °F 20 °F (2002)
Degree Days  
Heating Degree Days 16 22  
Month to date heating degree days 307 663  
Since 1 July heating degree days 1383 2144  
Cooling Degree Days 0 0  
Month to date cooling degree days 0 0  
Year to date cooling degree days 0 0  
Moisture  
Dew Point 40 °F    
Average Humidity 68    
Maximum Humidity 92    
Minimum Humidity 44    
Precipitation  
Precipitation T in 0.06 in 1.12 in (1944)
Month to date precipitation T 2.36  
Year to date precipitation T 2.36  
Since 1 July precipitation 0.78  
Sea Level Pressure  
Sea Level Pressure 29.86 in    
Wind  
Wind Speed 11 mph (SSW)    
Max Wind Speed 22 mph    
Max Gust Speed 29 mph    
Visibility 4 miles    
Events Fog , Rain    
T = Trace of Precipitation, MM = Missing Value Source: NWS Daily Summary

Daily Weather History Graph

Daily Weather History Graph

Search for Another Location

Airport or City:

Trip Planner

Search our weather history database for the weather conditions in past years. The results will help you decide how hot, cold, wet, or windy it might be!

Date:

Astronomy

Jan. 30, 2014 Rise Set
Actual Time 6:54 AM PST 5:22 PM PST
Civil Twilight 6:28 AM PST 5:48 PM PST
Nautical Twilight 5:57 AM PST 6:19 PM PST
Astronomical Twilight 5:27 AM PST 6:48 PM PST
Moon 6:26 AM PST (1/30) 5:37 PM PST (1/30)
Length of Visible Light 11h 20m
Length of Day
10h 27m
Waning Crescent, 0% of the Moon is Illuminated
Jan 30
Waning Crescent
Jan 30
New
Feb 6
First Quarter
Feb 14
Full
Feb 22
Last Quarter

Hourly Weather History & Observations

Time (PST) Temp. Windchill Dew Point Humidity Pressure Visibility Wind Dir Wind Speed Gust Speed Precip Events Conditions
12:48 AM 54.0 °F - 37.0 °F 53% 29.88 in 10.0 mi SSW 11.5 mph - N/A   Clear
1:48 AM 53.1 °F - 37.0 °F 55% 29.87 in 10.0 mi South 15.0 mph - N/A   Clear
2:48 AM 54.0 °F - 35.1 °F 49% 29.85 in 10.0 mi SSW 12.7 mph 21.9 mph N/A   Clear
3:48 AM 52.0 °F - 30.0 °F 43% 29.84 in 10.0 mi South 12.7 mph 21.9 mph N/A   Clear
4:48 AM 52.0 °F - 32.0 °F 47% 29.83 in 10.0 mi South 17.3 mph - N/A   Clear
5:48 AM 51.1 °F - 30.9 °F 46% 29.83 in 10.0 mi South 18.4 mph 28.8 mph N/A   Partly Cloudy
6:48 AM 48.9 °F - 30.9 °F 50% 29.83 in 10.0 mi South 18.4 mph 24.2 mph N/A   Clear
7:48 AM 50.0 °F - 36.0 °F 59% 29.85 in 10.0 mi SW 11.5 mph - N/A   Mostly Cloudy
8:48 AM 52.0 °F - 37.0 °F 57% 29.84 in 10.0 mi SSW 12.7 mph 23.0 mph N/A   Mostly Cloudy
9:48 AM 48.9 °F - 37.9 °F 66% 29.87 in 9.0 mi WSW 10.4 mph 19.6 mph N/A   Mostly Cloudy
10:41 AM 46.0 °F 40.6 °F 39.9 °F 79% 29.96 in 2.0 mi SW 11.5 mph - 0.00 in Rain Light Rain
10:43 AM 46.0 °F 40.6 °F 39.9 °F 79% 29.95 in 0.8 mi SW 11.5 mph - 0.00 in Rain Light Rain
10:48 AM 46.0 °F 40.6 °F 41.0 °F 83% 29.87 in 0.5 mi SSW 11.5 mph - 0.00 in Rain Light Rain
10:51 AM 46.0 °F 40.2 °F 41.0 °F 83% 29.95 in 0.2 mi SSW 12.7 mph - 0.00 in Rain Light Rain
11:23 AM 46.9 °F - 42.1 °F 83% 29.93 in 0.5 mi SSW 12.7 mph - 0.00 in   Haze
11:27 AM 46.9 °F - 42.1 °F 83% 29.93 in 0.2 mi SSW 13.8 mph - 0.00 in   Haze
11:37 AM 46.9 °F - 41.0 °F 80% 29.92 in 0.8 mi SSW 15.0 mph - 0.00 in   Haze
11:40 AM 46.9 °F - 42.1 °F 83% 29.92 in 1.5 mi SSW 16.1 mph - 0.00 in   Haze
11:46 AM 48.2 °F - 42.8 °F 82% 29.92 in 1.0 mi SSW 15.0 mph - 0.00 in   Haze
11:48 AM 48.0 °F - 42.1 °F 80% 29.83 in 1.0 mi SSW 13.8 mph - 0.00 in   Haze
11:54 AM 48.0 °F - 42.1 °F 80% 29.92 in 2.0 mi SSW 13.8 mph - N/A   Haze
12:04 PM 48.0 °F - 41.0 °F 77% 29.92 in 3.0 mi SSW 13.8 mph - N/A   Haze
12:09 PM 48.0 °F - 42.1 °F 80% 29.91 in 1.8 mi SSW 15.0 mph - N/A   Haze
12:16 PM 46.9 °F - 41.0 °F 80% 29.91 in 1.0 mi SSW 13.8 mph - N/A   Haze
12:28 PM 46.9 °F - 42.1 °F 83% 29.91 in 0.5 mi SW 11.5 mph - N/A   Haze
12:33 PM 46.0 °F 40.6 °F 42.1 °F 86% 29.90 in 0.2 mi SSW 11.5 mph - N/A Fog Fog
12:42 PM 48.0 °F - 42.1 °F 80% 29.89 in 1.0 mi SSW 13.8 mph - N/A   Haze
12:48 PM 46.9 °F - 42.1 °F 83% 29.81 in 1.0 mi SW 11.5 mph - N/A   Haze
12:57 PM 48.0 °F - 42.1 °F 80% 29.88 in 2.0 mi SSW 15.0 mph - N/A   Haze
1:08 PM 48.0 °F - 42.1 °F 80% 29.88 in 4.0 mi SSW 11.5 mph - N/A   Haze
1:27 PM 48.9 °F - 42.1 °F 77% 29.88 in 1.8 mi South 9.2 mph 19.6 mph N/A   Haze
1:32 PM 48.0 °F - 42.1 °F 80% 29.88 in 0.8 mi SSW 9.2 mph 19.6 mph N/A   Haze
1:41 PM 46.9 °F - 42.1 °F 83% 29.89 in 0.2 mi SW 8.1 mph - N/A   Haze
1:48 PM 46.0 °F 42.5 °F 43.0 °F 89% 29.80 in 0.2 mi SSW 6.9 mph - N/A Fog Fog
2:48 PM 46.0 °F 44.8 °F 43.0 °F 89% 29.80 in 0.2 mi WNW 3.5 mph - N/A Fog Fog
2:58 PM 46.9 °F - 42.1 °F 83% 29.87 in 1.8 mi Variable 4.6 mph - N/A   Haze
3:00 PM 46.9 °F - 42.1 °F 83% 29.87 in 4.0 mi North 4.6 mph - N/A   Haze
3:26 PM 46.9 °F - 41.0 °F 80% 29.88 in 7.0 mi NNW 16.1 mph 21.9 mph N/A   Overcast
3:48 PM 46.9 °F - 41.0 °F 80% 29.80 in 10.0 mi NW 16.1 mph - N/A   Overcast
3:54 PM 46.9 °F - 41.0 °F 80% 29.87 in 9.0 mi NW 15.0 mph - N/A   Mostly Cloudy
4:48 PM 46.0 °F 40.6 °F 39.9 °F 79% 29.79 in 10.0 mi NW 11.5 mph - N/A   Mostly Cloudy
5:24 PM 45.0 °F 43.5 °F 39.9 °F 82% 29.87 in 8.0 mi South 3.5 mph - N/A   Scattered Clouds
5:36 PM 45.0 °F - 41.0 °F 86% 29.87 in 3.0 mi Calm Calm - N/A   Mostly Cloudy
5:41 PM 45.0 °F 43.5 °F 41.0 °F 86% 29.87 in 2.0 mi South 3.5 mph - N/A   Mostly Cloudy
5:48 PM 45.0 °F 43.5 °F 39.9 °F 82% 29.80 in 1.0 mi SSW 3.5 mph - N/A   Haze
5:53 PM 44.1 °F 42.5 °F 41.0 °F 89% 29.87 in 0.5 mi SSW 3.5 mph - N/A Fog Fog
6:01 PM 45.0 °F - 41.0 °F 86% 29.87 in 0.2 mi Calm Calm - N/A Fog Fog
6:17 PM 44.1 °F 42.5 °F 41.0 °F 89% 29.87 in 0.2 mi South 3.5 mph - N/A Fog Fog
6:48 PM 45.0 °F 42.6 °F 41.0 °F 86% 29.81 in 0.2 mi SSW 4.6 mph - N/A Fog Fog
7:48 PM 45.0 °F 42.6 °F 42.1 °F 90% 29.79 in 0.2 mi SSW 4.6 mph - N/A Fog Fog
8:48 PM 45.0 °F 41.8 °F 41.0 °F 86% 29.79 in 0.2 mi SSW 5.8 mph - N/A Fog Fog
9:48 PM 44.1 °F 39.0 °F 41.0 °F 89% 29.81 in 0.2 mi SSW 9.2 mph - N/A Fog Fog
10:48 PM 44.1 °F 38.1 °F 41.0 °F 89% 29.83 in 0.2 mi SSW 11.5 mph - N/A Fog Fog
11:48 PM 43.0 °F 36.8 °F 41.0 °F 93% 29.81 in 0.2 mi SSW 11.5 mph - N/A Fog Fog